Location: *
(37.5724°S, 58.0067°E)
Time: 10:32:38
(UTC+00:00)

Cosmos 1980 - Pass Details

Date: 29 January 2021
Orbit: 840 x 846 km, 71.0° (Epoch: 07 March)

Event Time Altitude Azimuth Distance (km) Brightness Sun altitude
Rises 21:53:51 0° 205° (SSW) 3,439 7.4 -30.6°
Reaches altitude 10° 21:56:20 10° 207° (SSW) 2,496 6.5 -30.4°
Enters shadow 22:00:23 46° 225° (SW) 1,137 4.4 -30.0°
